Location: ??????
(41.3747°N, 22.5491°E)
Time: 15:34:11
(UTC+00:00)

H-2A R/B - Pass Details

Date: 01 December 2020
Orbit: 733 x 836 km, 98.2° (Epoch: 20 January)

Event Time Altitude Azimuth Distance (km) Brightness Sun altitude
Exits shadow 15:54:50 13° 65° (ENE) 2,168 3.7 -10.0°
Maximum altitude 15:55:17 13° 60° (ENE) 2,157 3.7 -10.1°
Drops below altitude 10° 15:57:29 10° 34° (NE) 2,339 4.0 -10.5°
Sets 16:01:06 0° 8° (N) 3,248 5.0 -11.1°
